Zurück zum Katalog

STARLINK-30704

AktivKommunikationVLEO
NORAD 57946·PAYLOAD·🇺🇸 United States

Gestartet Sep 25, 2023 von Vandenberg Space Force Base

Loading…

Nächste Überflüge (nächste 24 Stunden)

TLE

AktuellSource: CelesTrak SupGP

Epoche: Sep 14, 2026, 21:11 UTC

1 57946C 23148M   26257.88312500  .00012395  00000+0  36625-3 0  2579
2 57946  53.1584 299.6257 0001104  93.0474  28.0389 15.34380146    18

Verfolge STARLINK-30704 in Echtzeit mit AllMySat

Download on the App Store